PDT,Max TemperatureF,Mean TemperatureF,Min TemperatureF,Max Dew PointF,MeanDew PointF,Min DewpointF,Max Humidity, Mean Humidity, Min Humidity, Max Sea Level PressureIn, Mean Sea Level PressureIn, Min Sea Level PressureIn, Max VisibilityMiles, Mean VisibilityMiles, Min VisibilityMiles, Max Wind SpeedMPH, Mean Wind SpeedMPH, Max Gust SpeedMPH,PrecipitationIn, CloudCover, Events, WindDirDegrees
2012-10-1,75,56,37,32,23,18,65,33,12,30.39,30.34,30.30,10,10,7,15,2,20,0.00,0,,56
2012-10-2,77,56,35,32,23,18,56,34,12,30.31,30.27,30.22,10,10,10,9,1,16,0.00,0,,266
2012-10-3,69,55,41,36,31,25,70,43,20,30.30,30.27,30.25,10,10,10,20,5,24,0.00,0,,251
2012-10-4,71,53,35,34,26,12,81,42,11,30.31,30.29,30.25,10,10,7,13,3,17,0.00,0,,244
2012-10-5,71,52,33,28,24,12,75,39,11,30.28,30.24,30.21,10,10,10,10,2,,0.00,0,,243
2012-10-6,68,50,33,43,27,9,76,49,10,30.21,30.16,30.12,10,10,10,10,2,,0.00,0,,251
2012-10-7,68,50,32,41,31,3,93,58,10,30.17,30.14,30.11,10,10,10,10,2,,0.00,0,,44
2012-10-8,68,50,32,30,21,9,81,42,11,30.18,30.16,30.14,10,10,7,13,2,17,0.00,0,,252
2012-10-9,66,50,33,32,20,9,50,32,13,30.16,30.13,30.09,10,10,4,12,2,16,0.00,3,,234
2012-10-10,59,46,32,36,24,10,87,49,17,30.11,30.05,29.98,10,10,10,10,2,16,0.00,1,,235
2012-10-11,44,36,28,34,31,25,87,80,53,30.00,29.96,29.94,10,10,7,14,6,17,0.00,3,Rain,250
2012-10-12,44,37,30,32,31,27,87,77,61,30.25,30.10,29.99,10,10,1,12,6,16,0.00,6,,233
2012-10-13,60,44,28,34,30,27,93,64,34,30.36,30.31,30.25,10,9,0,13,2,18,0.00,2,Fog,61
2012-10-14,62,47,32,32,28,25,81,54,26,30.40,30.34,30.30,10,10,10,15,3,22,0.00,0,,63
2012-10-15,68,48,28,32,23,18,80,46,15,30.31,30.25,30.20,10,10,10,12,1,,0.00,0,,16
2012-10-16,71,50,30,28,21,12,64,40,11,30.23,30.17,30.11,10,10,10,10,1,,0.00,0,,78
2012-10-17,69,50,32,30,25,18,70,42,18,30.26,30.18,30.14,10,10,10,16,3,22,0.00,0,,60
2012-10-18,68,50,32,32,26,21,80,47,19,30.31,30.29,30.26,10,10,7,13,2,17,0.00,0,,51
2012-10-19,68,49,30,27,18,10,60,37,12,30.29,30.22,30.15,10,10,3,12,1,,0.00,0,,71
2012-10-20,62,47,32,32,27,23,80,50,22,30.14,30.05,30.00,10,10,7,14,3,23,0.00,0,,251
2012-10-21,59,46,33,39,31,18,87,54,32,30.03,29.99,29.96,10,10,10,16,7,18,0.00,0,,253
2012-10-22,55,44,33,34,26,10,93,54,19,30.06,30.02,29.99,10,10,7,15,6,26,0.00,0,,239
2012-10-23,55,46,37,32,8,-17,70,27,5,30.03,30.00,29.98,10,10,10,17,10,25,0.00,0,,248
2012-10-24,55,44,32,19,3,-17,48,23,5,30.18,30.08,29.98,10,10,7,18,9,28,0.00,0,,248
2012-10-25,60,43,26,23,11,0,55,32,13,30.27,30.20,30.16,10,10,10,12,2,17,0.00,0,,136
2012-10-26,57,42,26,18,6,-13,60,30,6,30.30,30.26,30.21,10,10,10,15,4,20,0.00,0,,74
2012-10-27,64,46,28,16,10,3,48,28,11,30.24,30.21,30.16,10,10,7,10,3,16,0.00,0,,75
2012-10-28,68,47,26,19,11,9,51,31,10,30.30,30.24,30.21,10,10,10,10,1,,0.00,0,,71
2012-10-29,66,46,26,18,10,5,55,30,10,30.34,30.31,30.29,10,10,7,10,1,16,0.00,0,,273
2012-10-30,66,46,26,18,10,5,47,30,11,30.32,30.28,30.23,10,10,7,9,1,,0.00,0,,22
2012-10-31,64,45,26,19,13,10,55,35,14,30.27,30.22,30.18,10,10,7,15,2,,0.00,0,,263